Hourly Weather Ahmadabad

Today, 8 July, Wednesday

Time Temperature Precipitation Wind Pressure Humidity
00:00 +32°C° 0.1 mm 5 mps 745 mmHg 75%
01:00 +32°C° 0.1 mm 5 mps 745 mmHg 75%
02:00 +32°C° 0.1 mm 5 mps 744 mmHg 75%
03:00 +32°C° 0 mm 5 mps 744 mmHg 76%
04:00 +32°C° 0 mm 5 mps 744 mmHg 77%
05:00 +30°C° 0 mm 5 mps 745 mmHg 77%
06:00 +32°C° 0 mm 6 mps 745 mmHg 74%
07:00 +33°C° 0 mm 6 mps 746 mmHg 70%
08:00 +33°C° 0 mm 6 mps 746 mmHg 67%
09:00 +35°C° 0 mm 6 mps 746 mmHg 62%
10:00 +36°C° 0 mm 6 mps 746 mmHg 57%
11:00 +38°C° 0 mm 6 mps 747 mmHg 52%
12:00 +39°C° 0.4 mm 7 mps 746 mmHg 51%
13:00 +39°C° 0.4 mm 7 mps 746 mmHg 50%
14:00 +39°C° 0.4 mm 7 mps 745 mmHg 49%
15:00 +39°C° 0.5 mm 7 mps 745 mmHg 50%
16:00 +39°C° 0.5 mm 6 mps 745 mmHg 50%
17:00 +39°C° 0.5 mm 6 mps 745 mmHg 51%
18:00 +38°C° 0.1 mm 6 mps 745 mmHg 54%
19:00 +36°C° 0.1 mm 6 mps 746 mmHg 58%
20:00 +35°C° 0.1 mm 6 mps 746 mmHg 61%
21:00 +35°C° 0 mm 6 mps 747 mmHg 63%
22:00 +34°C° 0 mm 5 mps 747 mmHg 64%
23:00 +34°C° 0 mm 5 mps 747 mmHg 66%

Tomorrow, 9 July, Thursday

Time Temperature Precipitation Wind Pressure Humidity
00:00 +33°C° 0 mm 5 mps 747 mmHg 68%
01:00 +33°C° 0 mm 5 mps 747 mmHg 70%
02:00 +32°C° 0 mm 5 mps 746 mmHg 72%
03:00 +32°C° 0 mm 5 mps 746 mmHg 73%
04:00 +32°C° 0 mm 5 mps 746 mmHg 74%
05:00 +32°C° 0 mm 5 mps 746 mmHg 75%
06:00 +32°C° 0 mm 5 mps 746 mmHg 73%
07:00 +33°C° 0 mm 5 mps 746 mmHg 70%
08:00 +34°C° 0 mm 5 mps 747 mmHg 67%
09:00 +35°C° 0 mm 6 mps 747 mmHg 61%
10:00 +36°C° 0 mm 6 mps 746 mmHg 56%
11:00 +38°C° 0 mm 6 mps 746 mmHg 50%
12:00 +39°C° 0 mm 6 mps 746 mmHg 49%
13:00 +39°C° 0 mm 6 mps 745 mmHg 48%
14:00 +40°C° 0 mm 6 mps 745 mmHg 47%
15:00 +39°C° 0 mm 6 mps 745 mmHg 48%
16:00 +39°C° 0 mm 6 mps 744 mmHg 50%
17:00 +38°C° 0 mm 6 mps 744 mmHg 51%
18:00 +38°C° 0.2 mm 6 mps 745 mmHg 53%
19:00 +36°C° 0.2 mm 6 mps 745 mmHg 55%
20:00 +36°C° 0.2 mm 6 mps 745 mmHg 57%
21:00 +35°C° 0 mm 6 mps 746 mmHg 59%
22:00 +35°C° 0 mm 6 mps 746 mmHg 61%
23:00 +34°C° 0 mm 6 mps 747 mmHg 63%

Day after tomorrow, 10 July, Friday

Time Temperature Precipitation Wind Pressure Humidity
00:00 +33°C° 0 mm 5 mps 746 mmHg 66%
01:00 +33°C° 0 mm 5 mps 746 mmHg 68%
02:00 +32°C° 0 mm 5 mps 745 mmHg 71%
03:00 +32°C° 0 mm 5 mps 745 mmHg 72%
04:00 +32°C° 0 mm 5 mps 745 mmHg 73%
05:00 +32°C° 0 mm 5 mps 745 mmHg 75%
06:00 +32°C° 0 mm 5 mps 745 mmHg 72%
07:00 +33°C° 0 mm 5 mps 745 mmHg 69%
08:00 +33°C° 0 mm 6 mps 746 mmHg 67%
09:00 +35°C° 0.1 mm 6 mps 746 mmHg 62%
10:00 +36°C° 0.1 mm 6 mps 746 mmHg 57%
11:00 +38°C° 0.1 mm 7 mps 746 mmHg 51%
12:00 +39°C° 0.1 mm 6 mps 745 mmHg 50%
13:00 +39°C° 0.1 mm 6 mps 745 mmHg 48%
14:00 +40°C° 0.1 mm 6 mps 744 mmHg 46%
15:00 +39°C° 0 mm 6 mps 744 mmHg 47%
16:00 +39°C° 0 mm 6 mps 743 mmHg 48%
17:00 +39°C° 0 mm 6 mps 743 mmHg 49%
18:00 +38°C° 0.3 mm 6 mps 744 mmHg 51%
19:00 +38°C° 0.3 mm 6 mps 744 mmHg 53%
20:00 +36°C° 0.3 mm 6 mps 745 mmHg 55%
21:00 +35°C° 0 mm 6 mps 745 mmHg 58%
22:00 +35°C° 0 mm 6 mps 745 mmHg 60%
23:00 +34°C° 0 mm 6 mps 745 mmHg 63%

11 July, Saturday

Time Temperature Precipitation Wind Pressure Humidity
00:00 +34°C° 0 mm 6 mps 745 mmHg 65%
01:00 +33°C° 0 mm 6 mps 745 mmHg 67%
02:00 +33°C° 0 mm 6 mps 744 mmHg 69%
03:00 +32°C° 0.1 mm 6 mps 744 mmHg 70%
04:00 +32°C° 0.1 mm 6 mps 744 mmHg 72%
05:00 +32°C° 0.1 mm 6 mps 744 mmHg 73%
06:00 +32°C° 0.1 mm 6 mps 744 mmHg 70%
07:00 +33°C° 0.1 mm 7 mps 745 mmHg 67%
08:00 +34°C° 0.1 mm 7 mps 745 mmHg 65%
09:00 +35°C° 0 mm 7 mps 745 mmHg 59%
10:00 +36°C° 0 mm 7 mps 745 mmHg 54%
11:00 +39°C° 0 mm 7 mps 745 mmHg 49%
12:00 +39°C° 0 mm 7 mps 744 mmHg 47%
13:00 +40°C° 0 mm 7 mps 744 mmHg 46%
14:00 +40°C° 0 mm 7 mps 743 mmHg 44%
15:00 +40°C° 0 mm 7 mps 743 mmHg 45%
16:00 +40°C° 0 mm 7 mps 743 mmHg 46%
17:00 +39°C° 0 mm 7 mps 743 mmHg 47%
18:00 +38°C° 0.1 mm 7 mps 743 mmHg 50%
19:00 +38°C° 0.1 mm 6 mps 744 mmHg 53%
20:00 +36°C° 0.1 mm 6 mps 744 mmHg 56%
21:00 +35°C° 0.2 mm 6 mps 745 mmHg 59%
22:00 +34°C° 0.2 mm 6 mps 745 mmHg 62%
23:00 +34°C° 0.2 mm 6 mps 745 mmHg 65%

12 July, Sunday

Time Temperature Precipitation Wind Pressure Humidity
00:00 +33°C° 0.1 mm 6 mps 745 mmHg 67%
01:00 +33°C° 0.1 mm 6 mps 745 mmHg 69%
02:00 +32°C° 0.1 mm 6 mps 745 mmHg 71%
03:00 +32°C° 0.1 mm 6 mps 745 mmHg 72%
04:00 +32°C° 0.1 mm 6 mps 744 mmHg 72%
05:00 +32°C° 0.1 mm 5 mps 744 mmHg 73%
06:00 +32°C° 0.2 mm 6 mps 745 mmHg 71%
07:00 +33°C° 0.2 mm 6 mps 745 mmHg 68%
08:00 +34°C° 0.2 mm 7 mps 746 mmHg 65%
09:00 +35°C° 0.6 mm 7 mps 746 mmHg 61%
10:00 +36°C° 0.6 mm 7 mps 746 mmHg 57%
11:00 +38°C° 0.6 mm 7 mps 746 mmHg 53%
12:00 +39°C° 0.5 mm 7 mps 746 mmHg 51%
13:00 +39°C° 0.5 mm 7 mps 745 mmHg 48%
14:00 +40°C° 0.5 mm 7 mps 745 mmHg 46%
15:00 +39°C° 0.1 mm 7 mps 745 mmHg 47%
16:00 +39°C° 0.1 mm 7 mps 745 mmHg 49%
17:00 +39°C° 0.1 mm 6 mps 744 mmHg 50%
18:00 +38°C° 0.5 mm 6 mps 745 mmHg 54%
19:00 +36°C° 0.5 mm 6 mps 745 mmHg 57%
20:00 +35°C° 0.5 mm 6 mps 745 mmHg 61%
21:00 +34°C° 1.1 mm 6 mps 746 mmHg 63%
22:00 +34°C° 1.1 mm 6 mps 746 mmHg 65%
23:00 +33°C° 1.1 mm 6 mps 747 mmHg 67%

13 July, Monday

Time Temperature Precipitation Wind Pressure Humidity
00:00 +33°C° 0 mm 6 mps 746 mmHg 69%
01:00 +33°C° 0 mm 5 mps 746 mmHg 70%
02:00 +32°C° 0 mm 5 mps 745 mmHg 71%
03:00 +32°C° 0 mm 5 mps 745 mmHg 72%
04:00 +32°C° 0 mm 5 mps 745 mmHg 73%
05:00 +30°C° 0 mm 4 mps 745 mmHg 74%
06:00 +32°C° 0 mm 4 mps 746 mmHg 72%
07:00 +32°C° 0 mm 5 mps 746 mmHg 70%
08:00 +33°C° 0 mm 5 mps 746 mmHg 68%
09:00 +34°C° 0 mm 5 mps 746 mmHg 63%
10:00 +36°C° 0 mm 5 mps 746 mmHg 58%
11:00 +37°C° 0 mm 5 mps 746 mmHg 53%
12:00 +39°C° 0 mm 5 mps 746 mmHg 50%
13:00 +39°C° 0 mm 5 mps 745 mmHg 48%
14:00 +40°C° 0 mm 5 mps 745 mmHg 46%
15:00 +39°C° 0 mm 5 mps 745 mmHg 47%
16:00 +39°C° 0 mm 5 mps 745 mmHg 49%
17:00 +37°C° 0 mm 5 mps 744 mmHg 51%
18:00 +37°C° 0.5 mm 5 mps 745 mmHg 54%
19:00 +36°C° 0.5 mm 5 mps 745 mmHg 58%
20:00 +35°C° 0.5 mm 5 mps 746 mmHg 62%
21:00 +34°C° 0.8 mm 5 mps 746 mmHg 64%
22:00 +34°C° 0.8 mm 5 mps 747 mmHg 66%
23:00 +33°C° 0.8 mm 5 mps 747 mmHg 68%
Show more